N1YZ Weather Reports


time (UTC)temp
C
wind
direction
speed
KPH
gust
KPH
rain 1hr
cm
rain 24hr
cm
rain mn
cm
humidity
%
barometer
mb
20260902060555 25 19 0.0 0.0 0.00 0.00 0.00 87 1037.0
20260902060051 25 347 0.0 0.0 0.00 0.00 0.00 87 1037.2
20260902055547 25 12 0.0 0.0 0.00 0.00 0.00 87 1037.2
20260902055042 25 100 0.0 0.0 0.00 0.00 0.00 88 1037.1
20260902054537 26 100 0.0 0.0 0.00 0.00 0.00 87 1037.4
20260902054033 26 280 0.0 0.0 0.00 0.00 0.00 86 1037.1
20260902053532 26 336 0.0 0.0 0.00 0.00 0.00 85 1037.3
20260902053027 26 348 0.0 0.0 0.00 0.00 0.00 84 1037.3
20260902052522 26 348 0.0 0.0 0.00 0.00 0.00 85 1037.3
20260902052018 26 349 0.0 0.0 0.00 0.00 0.00 86 1037.2
20260902051517 26 349 0.0 0.0 0.00 0.00 0.00 85 1037.2
20260902051016 26 349 0.0 0.0 0.00 0.00 0.00 85 1037.3
20260902050511 26 349 0.0 0.0 0.00 0.00 0.00 84 1037.3
20260902050008 26 348 0.0 0.0 0.00 0.00 0.00 84 1037.3
20260902045501 26 348 0.0 0.0 0.00 0.00 0.00 84 1037.3
20260902044958 26 357 0.0 0.0 0.00 0.00 0.00 85 1037.3
20260902044452 26 357 0.0 0.0 0.00 0.00 0.00 85 1037.2
20260902043948 26 358 0.0 0.0 0.00 0.00 0.00 84 1037.4
20260902043443 26 358 0.0 0.0 0.00 0.00 0.00 84 1037.3
20260902042938 26 358 0.0 0.0 0.00 0.00 0.00 84 1037.2
20260902042438 26 358 0.0 0.0 0.00 0.00 0.00 83 1037.3
20260902041933 26 358 0.0 0.0 0.00 0.00 0.00 82 1037.1
20260902041427 26 358 0.0 0.0 0.00 0.00 0.00 82 1037.6
20260902040926 26 358 0.0 0.0 0.00 0.00 0.00 81 1037.4
20260902040421 26 359 0.0 0.0 0.00 0.00 0.00 81 1037.5
20260902035920 27 359 0.0 0.0 0.00 0.00 0.00 81 1037.4
20260902035416 27 359 0.0 0.0 0.00 0.00 0.00 81 1037.3
20260902034914 27 359 0.0 0.0 0.00 0.00 0.00 80 1037.3
20260902034409 27 353 0.0 0.0 0.00 0.00 0.00 79 1037.5
20260902033909 27 345 0.0 0.0 0.00 0.00 0.00 80 1037.3
20260902033403 27 207 0.0 0.0 0.00 0.00 0.00 79 1037.4
20260902032902 27 328 0.0 0.0 0.00 0.00 0.00 79 1037.6
20260902032356 27 307 0.0 0.0 0.00 0.00 0.00 79 1037.5
20260902031856 27 357 0.0 0.0 0.00 0.00 0.00 76 1037.5
20260902031347 28 357 0.0 0.0 0.00 0.00 0.00 76 1037.6
20260902030837 28 358 0.0 0.0 0.00 0.00 0.00 76 1037.5
20260902030331 28 357 0.0 0.0 0.00 0.00 0.00 75 1037.4
20260902025830 28 7 0.0 0.0 0.00 0.00 0.00 74 1037.7
20260902025326 28 357 0.0 0.0 0.00 0.00 0.00 75 1037.6
20260902024820 28 357 0.0 0.0 0.00 0.00 0.00 75 1037.4
20260902024316 28 357 0.0 0.0 0.00 0.00 0.00 75 1037.8
20260902023811 28 358 0.0 0.0 0.00 0.00 0.00 74 1037.5
20260902023307 28 358 0.0 0.0 0.00 0.00 0.00 74 1037.3
20260902022806 28 358 0.0 0.0 0.00 0.00 0.00 74 1037.6
20260902022301 28 358 0.0 0.0 0.00 0.00 0.00 73 1037.3
20260902021757 28 358 0.0 0.0 0.00 0.00 0.00 73 1037.3
20260902021256 28 358 0.0 0.0 0.00 0.00 0.00 73 1037.3
20260902020753 28 358 0.0 0.0 0.00 0.00 0.00 72 1037.3
20260902020249 28 358 0.0 0.0 0.00 0.00 0.00 71 1037.2
20260902015743 28 358 0.0 0.0 0.00 0.00 0.00 71 1037.2
20260902015240 28 358 0.0 0.0 0.00 0.00 0.00 71 1037.0
20260902014735 29 358 0.0 0.0 0.00 0.00 0.00 70 1037.1
20260902014232 29 359 0.0 0.0 0.00 0.00 0.00 69 1036.9
20260902013729 29 359 0.0 0.0 0.00 0.00 0.00 68 1036.9
20260902013226 30 358 0.0 0.0 0.00 0.00 0.00 67 1036.6
20260902012721 30 358 0.0 0.0 0.00 0.00 0.00 67 1036.7
20260902012217 30 358 0.0 0.0 0.00 0.00 0.00 67 1036.7
20260902011712 30 359 0.0 0.0 0.00 0.00 0.00 66 1036.8
20260902011212 30 359 0.0 0.0 0.00 0.00 0.00 67 1036.7
20260902010706 30 359 0.0 0.0 0.00 0.00 0.00 66 1036.8
20260902010202 30 359 0.0 0.0 0.00 0.00 0.00 65 1036.6
20260902005700 30 359 0.0 0.0 0.00 0.00 0.00 64 1036.5
20260902005156 30 359 0.0 0.0 0.00 0.00 0.00 64 1036.4
20260902004656 30 359 0.0 0.0 0.00 0.00 0.00 63 1036.5
20260902004150 30 359 0.0 0.0 0.00 0.00 0.00 63 1036.3
20260902003646 30 359 0.0 0.0 0.00 0.00 0.00 62 1036.1
20260902003142 31 0 0.0 0.0 0.00 0.00 0.00 62 1036.2
20260902002636 31 1 0.0 0.0 0.00 0.00 0.00 61 1036.3
20260902002131 31 354 0.0 0.0 0.00 0.00 0.00 62 1036.2
20260902001626 31 6 0.0 0.0 0.00 0.00 0.00 61 1036.3
20260902001120 31 9 0.0 0.0 0.00 0.00 0.00 61 1036.2
20260902000616 31 336 0.0 0.0 0.00 0.00 0.00 61 1036.1
20260902000111 31 353 0.0 0.0 0.00 0.00 0.00 60 1036.3
20260901235605 32 4 0.0 0.0 0.00 0.00 0.00 59 1036.5
20260901235101 32 299 0.0 0.0 0.00 0.00 0.00 59 1036.5
20260901234559 32 355 0.0 0.0 0.00 0.00 0.00 58 1036.5
20260901234054 32 356 0.0 0.0 0.00 0.00 0.00 58 1036.5
20260901233549 32 9 0.0 0.0 0.00 0.00 0.00 58 1036.6
20260901233045 32 351 0.0 0.0 0.00 0.00 0.00 57 1036.5
20260901232540 32 352 0.0 0.0 0.00 0.00 0.00 57 1036.6
20260901232035 32 2 0.0 0.0 0.00 0.00 0.00 57 1036.7
20260901231531 32 10 0.0 0.0 0.00 0.00 0.00 57 1036.4
20260901231027 32 16 0.0 0.0 0.00 0.00 0.00 57 1036.5
20260901230522 32 14 0.0 0.0 0.00 0.00 0.00 57 1036.4
20260901230017 32 7 0.0 0.0 0.00 0.00 0.00 56 1036.3
20260901225512 32 11 0.0 0.0 0.00 0.00 0.00 56 1036.5
20260901225011 32 31 0.0 0.0 0.00 0.00 0.00 56 1036.6
20260901223337 33 51 1.6 1.6 0.00 0.00 0.00 55 1036.3
20260901222832 33 51 1.6 1.6 0.00 0.00 0.00 55 1036.3
20260901222329 33 0 0.0 1.6 0.00 0.00 0.00 56 1036.3
20260901221824 33 9 0.0 0.0 0.00 0.00 0.00 56 1036.2
20260901221320 33 8 0.0 0.0 0.00 0.00 0.00 56 1036.3
20260901220819 33 173 1.6 1.6 0.00 0.00 0.00 55 1036.2
20260901220318 33 21 0.0 0.0 0.00 0.00 0.00 55 1036.4
20260901215817 32 18 0.0 0.0 0.00 0.00 0.00 57 1036.2
20260901215312 33 355 1.6 1.6 0.00 0.00 0.00 57 1036.3
20260901214810 32 83 0.0 1.6 0.00 0.00 0.00 55 1036.2
20260901214309 33 2 0.0 0.0 0.00 0.00 0.00 55 1036.6
20260901213804 33 354 0.0 0.0 0.00 0.00 0.00 55 1036.2
20260901213304 32 27 0.0 1.6 0.00 0.00 0.00 57 1036.4
20260901212759 33 19 0.0 0.0 0.00 0.00 0.00 54 1036.4
20260901212254 33 18 0.0 0.0 0.00 0.00 0.00 56 1036.4
20260901211749 33 0 0.0 0.0 0.00 0.00 0.00 54 1036.4
20260901211246 33 250 1.6 1.6 0.00 0.00 0.00 52 1036.5
20260901210741 33 43 1.6 1.6 0.00 0.00 0.00 56 1036.4
20260901210237 33 341 1.6 3.2 0.00 0.00 0.00 54 1036.5
20260901205733 33 11 4.8 4.8 0.00 0.00 0.00 53 1036.6
20260901205232 34 198 0.0 0.0 0.00 0.00 0.00 53 1036.6
20260901204728 33 182 3.2 3.2 0.00 0.00 0.00 52 1036.6
20260901204224 33 195 1.6 3.2 0.00 0.00 0.00 52 1036.6
20260901203718 33 19 0.0 0.0 0.00 0.00 0.00 55 1036.6
20260901203213 34 184 3.2 3.2 0.00 0.00 0.00 53 1036.6
20260901202712 34 64 0.0 1.6 0.00 0.00 0.00 53 1036.7
20260901202208 33 38 0.0 0.0 0.00 0.00 0.00 51 1036.9
20260901201704 34 59 0.0 0.0 0.00 0.00 0.00 51 1037.0
20260901201203 34 150 0.0 1.6 0.00 0.00 0.00 54 1037.2
20260901200703 33 29 0.0 0.0 0.00 0.00 0.00 53 1037.3
20260901200153 34 23 0.0 0.0 0.00 0.00 0.00 54 1037.2
20260901195650 33 6 0.0 0.0 0.00 0.00 0.00 53 1037.2
20260901195144 33 254 1.6 1.6 0.00 0.00 0.00 54 1037.5
20260901194639 33 13 0.0 0.0 0.00 0.00 0.00 53 1037.3
20260901194129 33 346 1.6 3.2 0.00 0.00 0.00 58 1037.3
20260901193625 33 20 0.0 1.6 0.00 0.00 0.00 54 1037.3
20260901193119 33 36 0.0 1.6 0.00 0.00 0.00 51 1037.3
20260901192614 34 28 0.0 0.0 0.00 0.00 0.00 53 1037.4
20260901192109 33 9 0.0 0.0 0.00 0.00 0.00 53 1037.7
20260901191605 33 44 0.0 1.6 0.00 0.00 0.00 55 1037.7
20260901191101 33 17 0.0 0.0 0.00 0.00 0.00 53 1037.9
20260901190556 33 351 1.6 3.2 0.00 0.00 0.00 54 1037.8
20260901190055 34 33 0.0 0.0 0.00 0.00 0.00 53 1037.9
20260901185554 35 356 0.0 1.6 0.00 0.00 0.00 52 1038.1
20260901185053 35 19 0.0 0.0 0.00 0.00 0.00 50 1038.1
20260901184549 35 126 1.6 3.2 0.00 0.00 0.00 48 1038.0
20260901184043 34 356 0.0 1.6 0.00 0.00 0.00 52 1038.2
20260901183538 33 22 1.6 1.6 0.00 0.00 0.00 54 1038.1
20260901183034 34 25 0.0 1.6 0.00 0.00 0.00 52 1038.3
20260901182530 33 4 0.0 1.6 0.00 0.00 0.00 54 1038.1
20260901182030 33 350 0.0 0.0 0.00 0.00 0.00 56 1038.4
20260901181529 34 346 0.0 0.0 0.00 0.00 0.00 53 1038.2
20260901181028 34 26 0.0 0.0 0.00 0.00 0.00 54 1038.3
20260901180527 34 246 1.6 1.6 0.00 0.00 0.00 51 1038.1
20260901180022 34 36 0.0 1.6 0.00 0.00 0.00 56 1038.5
20260901175516 34 198 1.6 3.2 0.00 0.00 0.00 53 1038.3
20260901175016 33 35 0.0 0.0 0.00 0.00 0.00 54 1038.4
20260901174512 33 357 0.0 0.0 0.00 0.00 0.00 58 1038.5
20260901174008 33 19 0.0 0.0 0.00 0.00 0.00 59 1038.4
20260901173503 33 13 1.6 1.6 0.00 0.00 0.00 56 1038.6
20260901172959 32 352 0.0 0.0 0.00 0.00 0.00 57 1038.6
20260901172454 32 358 1.6 1.6 0.00 0.00 0.00 58 1038.7
20260901171952 33 9 0.0 1.6 0.00 0.00 0.00 57 1038.8
20260901171450 33 205 0.0 1.6 0.00 0.00 0.00 53 1038.7
20260901170949 33 30 0.0 1.6 0.00 0.00 0.00 60 1039.0
20260901170444 33 45 0.0 0.0 0.00 0.00 0.00 56 1038.9
20260901165944 32 7 0.0 0.0 0.00 0.00 0.00 62 1039.0
20260901165439 32 2 1.6 1.6 0.00 0.00 0.00 64 1039.1
20260901164935 33 35 0.0 0.0 0.00 0.00 0.00 61 1039.0
20260901164430 32 351 0.0 0.0 0.00 0.00 0.00 63 1039.1
20260901163925 32 26 0.0 0.0 0.00 0.00 0.00 60 1039.0
20260901163419 32 342 0.0 0.0 0.00 0.00 0.00 62 1039.1
20260901162914 32 11 0.0 0.0 0.00 0.00 0.00 62 1038.9
20260901162414 31 24 0.0 0.0 0.00 0.00 0.00 61 1038.8
20260901161907 31 20 0.0 0.0 0.00 0.00 0.00 59 1039.2
20260901161406 31 142 1.6 3.2 0.00 0.00 0.00 57 1039.1
20260901160901 31 33 0.0 0.0 0.00 0.00 0.00 69 1039.1
20260901160358 31 25 0.0 0.0 0.00 0.00 0.00 66 1039.2
20260901155857 31 356 0.0 0.0 0.00 0.00 0.00 70 1039.4
20260901155352 31 259 0.0 0.0 0.00 0.00 0.00 69 1039.4
20260901154849 31 17 0.0 0.0 0.00 0.00 0.00 67 1039.6
20260901154347 31 332 0.0 0.0 0.00 0.00 0.00 68 1039.4
20260901153842 31 352 0.0 0.0 0.00 0.00 0.00 67 1039.6
20260901153337 31 34 0.0 0.0 0.00 0.00 0.00 68 1039.5
20260901152836 31 359 0.0 0.0 0.00 0.00 0.00 64 1039.7
20260901152336 31 35 0.0 0.0 0.00 0.00 0.00 67 1039.6
20260901151831 31 43 0.0 0.0 0.00 0.00 0.00 67 1039.6
20260901151326 31 19 0.0 0.0 0.00 0.00 0.00 67 1039.7
20260901150825 31 15 0.0 0.0 0.00 0.00 0.00 69 1039.8
20260901150323 31 33 0.0 0.0 0.00 0.00 0.00 70 1039.9
20260901145821 30 342 0.0 0.0 0.00 0.00 0.00 71 1039.8
20260901145321 30 358 0.0 0.0 0.00 0.00 0.00 72 1039.8
20260901144816 30 220 1.6 1.6 0.00 0.00 0.00 72 1039.7
20260901144312 30 289 0.0 0.0 0.00 0.00 0.00 72 1039.5
20260901143808 31 0 0.0 0.0 0.00 0.00 0.00 72 1039.7
20260901143304 30 9 0.0 0.0 0.00 0.00 0.00 72 1039.6
20260901142800 30 350 0.0 0.0 0.00 0.00 0.00 75 1039.8
20260901142258 29 0 0.0 0.0 0.00 0.00 0.00 78 1039.8
20260901141754 28 350 0.0 0.0 0.00 0.00 0.00 80 1039.8
20260901141249 28 1 0.0 0.0 0.00 0.00 0.00 81 1039.8
20260901140748 27 8 0.0 0.0 0.00 0.00 0.00 83 1039.6
20260901140246 27 266 0.0 0.0 0.00 0.00 0.00 84 1039.6
20260901135741 26 349 0.0 0.0 0.00 0.00 0.00 85 1039.6
20260901135236 26 345 0.0 0.0 0.00 0.00 0.00 86 1039.6
20260901134731 26 340 0.0 0.0 0.00 0.00 0.00 86 1039.7
20260901134226 26 312 0.0 0.0 0.00 0.00 0.00 87 1039.6
20260901133725 25 307 0.0 0.0 0.00 0.00 0.00 89 1039.8
20260901133225 25 342 0.0 0.0 0.00 0.00 0.00 91 1039.7
20260901132723 25 321 0.0 0.0 0.00 0.00 0.00 91 1039.7
20260901132218 25 0 0.0 0.0 0.00 0.00 0.00 92 1039.7
20260901131713 25 238 0.0 0.0 0.00 0.00 0.00 92 1039.8
20260901131213 25 28 0.0 0.0 0.00 0.00 0.00 93 1039.9
20260901130708 24 359 0.0 0.0 0.00 0.00 0.00 93 1039.9
20260901130207 24 293 0.0 0.0 0.00 0.00 0.00 94 1040.0
20260901125705 24 266 0.0 0.0 0.00 0.00 0.00 94 1039.8
20260901125200 23 297 0.0 0.0 0.00 0.00 0.00 95 1039.7
20260901124654 23 324 0.0 0.0 0.00 0.00 0.00 95 1039.5
20260901124149 23 284 0.0 0.0 0.00 0.00 0.00 95 1039.6
20260901123644 23 46 0.0 0.0 0.00 0.00 0.00 96 1039.6
20260901123143 23 79 0.0 0.0 0.00 0.00 0.00 96 1039.6
20260901122642 23 87 0.0 0.0 0.00 0.00 0.00 96 1039.6
20260901122137 23 54 0.0 0.0 0.00 0.00 0.00 97 1039.5
20260901121631 23 12 0.0 0.0 0.00 0.00 0.00 97 1039.3
20260901121126 23 20 0.0 0.0 0.00 0.00 0.00 98 1039.2
20260901120621 23 16 0.0 0.0 0.00 0.00 0.00 98 1039.1
20260901120116 23 12 0.0 0.0 0.00 0.00 0.00 98 1039.1
20260901115611 22 26 0.0 0.0 0.00 0.00 0.00 98 1038.7
20260901115108 23 27 0.0 0.0 0.00 0.00 0.00 98 1038.8
20260901114604 23 43 0.0 0.0 0.00 0.00 0.00 98 1038.8
20260901114102 23 83 0.0 0.0 0.00 0.00 0.00 97 1038.6
20260901113601 23 76 0.0 0.0 0.00 0.00 0.00 97 1038.8
20260901113052 23 68 0.0 0.0 0.00 0.00 0.00 96 1038.4
20260901112551 23 34 0.0 0.0 0.00 0.00 0.00 96 1038.7
20260901112046 23 340 0.0 0.0 0.00 0.00 0.00 97 1038.7
20260901111545 23 2 0.0 0.0 0.00 0.00 0.00 96 1038.7
20260901111043 23 2 0.0 0.0 0.00 0.00 0.00 96 1038.7
20260901110539 23 2 0.0 0.0 0.00 0.00 0.00 96 1038.5
20260901110035 23 2 0.0 0.0 0.00 0.00 0.00 96 1038.6
20260901105532 23 2 0.0 0.0 0.00 0.00 0.00 96 1038.5
20260901105030 23 2 0.0 0.0 0.00 0.00 0.00 96 1038.3
20260901104527 23 2 0.0 0.0 0.00 0.00 0.00 96 1038.5
20260901104022 23 2 0.0 0.0 0.00 0.00 0.00 96 1038.4
20260901103521 23 2 0.0 0.0 0.00 0.00 0.00 96 1038.3
20260901103018 23 2 0.0 0.0 0.00 0.00 0.00 96 1038.5
20260901102517 23 2 0.0 0.0 0.00 0.00 0.00 96 1038.3
20260901102012 23 3 0.0 0.0 0.00 0.00 0.00 96 1038.2
20260901101508 23 30 0.0 0.0 0.00 0.00 0.00 96 1038.4
20260901101007 23 25 0.0 0.0 0.00 0.00 0.00 96 1038.2
20260901100502 23 25 0.0 0.0 0.00 0.00 0.00 96 1038.2
20260901100000 23 25 0.0 0.0 0.00 0.00 0.00 96 1038.2
20260901095459 23 29 0.0 0.0 0.00 0.00 0.00 96 1038.4
20260901094957 23 38 0.0 0.0 0.00 0.00 0.00 96 1038.4
20260901094452 23 164 0.0 0.0 0.00 0.00 0.00 96 1038.4
20260901093947 23 176 0.0 0.0 0.00 0.00 0.00 96 1038.3
20260901093442 23 174 0.0 0.0 0.00 0.00 0.00 96 1038.2
20260901092941 23 312 0.0 0.0 0.00 0.00 0.00 95 1037.8
20260901092437 24 353 0.0 0.0 0.00 0.00 0.00 95 1038.1
20260901091934 24 350 0.0 0.0 0.00 0.00 0.00 95 1038.0
20260901091433 24 346 0.0 0.0 0.00 0.00 0.00 95 1038.0
20260901090929 24 321 0.0 0.0 0.00 0.00 0.00 96 1038.2
20260901090428 23 343 0.0 0.0 0.00 0.00 0.00 96 1038.1
20260901085924 23 10 0.0 0.0 0.00 0.00 0.00 96 1038.1
20260901085420 23 9 0.0 0.0 0.00 0.00 0.00 96 1037.9
20260901084916 23 12 0.0 0.0 0.00 0.00 0.00 96 1037.8
20260901084413 23 14 0.0 0.0 0.00 0.00 0.00 96 1038.0
20260901083908 23 16 0.0 0.0 0.00 0.00 0.00 96 1038.0
20260901083408 23 16 0.0 0.0 0.00 0.00 0.00 96 1037.8
20260901082906 24 16 0.0 0.0 0.00 0.00 0.00 96 1037.9
20260901082401 24 33 0.0 0.0 0.00 0.00 0.00 96 1037.7
20260901081855 24 35 0.0 0.0 0.00 0.00 0.00 96 1037.9
20260901081351 24 46 0.0 0.0 0.00 0.00 0.00 96 1037.9
20260901080851 24 59 0.0 0.0 0.00 0.00 0.00 96 1037.7
20260901080345 24 74 0.0 0.0 0.00 0.00 0.00 96 1037.6
20260901075840 24 96 0.0 0.0 0.00 0.00 0.00 96 1037.6
20260901075335 24 52 0.0 0.0 0.00 0.00 0.00 95 1037.5
20260901074830 24 20 0.0 0.0 0.00 0.00 0.00 95 1037.3
20260901074324 24 8 0.0 0.0 0.00 0.00 0.00 95 1037.5
20260901073820 24 8 0.0 0.0 0.00 0.00 0.00 95 1037.5
20260901073315 24 13 0.0 0.0 0.00 0.00 0.00 95 1037.5
20260901072812 24 13 0.0 0.0 0.00 0.00 0.00 94 1037.5
20260901072311 24 355 0.0 0.0 0.00 0.00 0.00 94 1037.8
20260901071807 24 353 0.0 0.0 0.00 0.00 0.00 95 1037.5
20260901071305 25 43 0.0 0.0 0.00 0.00 0.00 94 1037.5
20260901070804 25 13 0.0 0.0 0.00 0.00 0.00 94 1037.7
20260901070259 25 10 0.0 0.0 0.00 0.00 0.00 94 1037.4
20260901065759 25 14 0.0 0.0 0.00 0.00 0.00 94 1037.6
20260901065254 25 8 0.0 0.0 0.00 0.00 0.00 93 1037.5
20260901064750 25 3 0.0 0.0 0.00 0.00 0.00 93 1037.5
20260901064246 25 34 0.0 0.0 0.00 0.00 0.00 93 1037.8
20260901063743 25 40 0.0 0.0 0.00 0.00 0.00 93 1037.8
20260901063239 25 63 0.0 0.0 0.00 0.00 0.00 93 1037.6
20260901062735 25 36 0.0 0.0 0.00 0.00 0.00 93 1037.8
20260901062231 25 350 0.0 0.0 0.00 0.00 0.00 93 1037.7
20260901061726 25 12 0.0 0.0 0.00 0.00 0.00 93 1037.7
20260901061225 25 12 0.0 0.0 0.00 0.00 0.00 93 1037.6